Wind_Speed
19 19 20 20 20 21 21 21 22 22 21 21 22 23 23 24 26 28 30 32 33 36 37 38 39 41 42 41 40 39 38 37 35 33 30 31 31 29 28 27 27 27 25
18 19 19 19 20 20 21 21 20 20 19 19 19 19 20 21 22 24 27 29 30 32 34 36 37 39 41 42 42 41 39 39 37 35 33 31 32 31 30 29 28 28 27
17 18 19 20 20 21 21 21 20 19 18 18 18 18 18 19 20 21 23 25 27 30 32 34 35 37 39 41 42 42 40 40 39 37 36 33 32 33 32 32 31 30 29
17 18 19 20 21 21 21 21 21 19 18 18 17 18 18 18 18 19 20 22 24 26 28 31 33 35 37 39 40 41 41 41 41 40 39 36 34 34 33 33 33 32 31
18 18 19 20 21 22 22 21 20 19 19 18 18 18 18 17 17 16 17 18 20 23 25 28 30 32 33 36 38 39 41 42 42 42 41 39 38 36 34 34 34 33 32
18 19 19 20 21 22 22 21 20 20 20 20 19 19 18 17 16 16 15 16 18 20 21 24 26 28 31 33 35 37 39 41 42 42 42 42 39 38 36 35 34 34 34
18 19 19 20 21 22 23 22 21 21 21 21 21 20 19 18 17 15 13 13 14 16 18 20 22 24 27 30 32 33 36 39 40 41 42 41 40 39 38 37 36 36 35
18 19 19 20 21 22 22 22 22 23 23 23 22 21 20 19 18 15 13 11 11 12 14 16 18 20 23 26 28 30 32 35 38 40 41 41 40 40 40 38 36 36 36
18 19 19 20 21 22 23 23 23 24 24 23 23 22 21 20 18 16 14 12 10 10 10 12 15 16 19 22 25 27 29 32 34 37 39 40 40 40 41 39 37 36 36
18 19 19 20 22 22 23 23 23 24 24 25 24 23 22 21 20 17 15 12 10 8 8 9 11 13 16 19 22 24 26 28 31 33 36 38 39 39 40 40 38 38 37
18 19 20 20 22 23 23 24 24 25 25 25 25 24 23 22 21 19 16 13 11 10 8 7 9 11 13 16 19 21 23 26 28 30 33 36 37 38 38 39 39 39 38
18 18 19 20 22 23 24 24 24 25 25 26 26 25 24 22 21 19 17 15 13 12 10 8 8 9 11 14 17 19 21 23 25 28 30 33 35 37 37 38 38 38 38
17 18 19 20 21 23 24 24 25 25 26 26 26 25 25 23 21 20 19 17 15 14 12 10 8 7 8 11 14 16 19 21 23 25 27 30 33 34 35 35 36 36 36
16 17 18 19 21 22 23 24 24 25 26 26 26 25 25 24 22 21 20 18 17 15 13 11 10 8 6 8 10 13 16 18 21 23 24 26 28 31 32 33 33 35 35
16 16 17 19 20 21 23 23 24 25 25 26 26 26 25 24 23 22 21 20 19 17 15 13 11 10 7 6 7 10 13 15 18 20 22 23 24 27 28 30 31 32 33
15 16 17 18 19 21 22 23 24 24 24 25 25 26 25 25 24 23 22 21 20 19 16 15 13 11 9 6 6 7 10 12 14 17 19 21 22 23 25 28 28 29 30
15 15 16 17 19 20 21 22 23 23 24 24 24 25 25 25 24 24 23 23 21 20 19 17 14 13 10 8 5 4 7 9 11 13 16 18 19 20 21 24 25 25 26
14 15 16 17 18 19 20 21 22 23 23 24 24 24 24 24 24 23 23 23 22 21 20 19 17 14 12 9 6 4 2 5 7 10 13 15 17 18 19 20 23 23 23
14 15 16 17 17 18 19 20 21 22 23 23 24 24 24 23 23 23 23 23 23 22 21 20 19 17 14 11 8 6 3 1 4 7 9 11 13 15 17 18 19 20 21
15 15 16 17 18 18 19 19 20 21 22 22 23 23 23 23 22 22 22 23 23 23 21 20 20 18 15 12 10 8 6 4 1 2 6 8 10 13 14 16 17 18 19
16 16 17 18 18 19 19 19 20 20 21 21 22 22 22 21 21 21 21 22 22 22 22 21 20 18 17 14 12 10 8 6 4 1 2 5 7 9 12 13 14 15 16
17 17 18 19 19 19 20 20 20 20 20 21 21 21 21 20 20 19 20 21 21 21 21 20 19 19 17 15 13 11 9 8 6 3 1 3 5 7 9 10 11 13 14
18 19 19 19 20 20 20 20 20 20 20 20 20 20 20 20 19 18 19 19 19 20 20 19 19 18 17 16 14 12 9 7 6 5 2 1 4 6 8 8 9 11 12
20 20 20 20 20 20 20 20 20 20 20 20 20 20 20 19 19 18 18 18 18 18 18 18 17 17 16 15 14 12 10 8 7 5 3 1 2 4 6 8 8 9 10
21 21 21 21 21 21 21 21 21 21 21 21 21 20 20 20 19 19 18 18 17 17 17 16 16 16 15 14 13 12 10 8 6 5 3 2 1 2 4 6 7 8 9
23 23 23 24 24 24 23 23 22 22 22 22 21 21 21 20 20 19 19 18 18 17 17 16 15 15 14 13 12 11 9 8 7 5 4 2 1 2 3 5 6 8 9
Wind_Direction
335 335 334 333 331 329 326 321 316 311 307 303 298 292 285 277 271 265 261 259 256 253 251 250 248 247 246 245 243 242 240 237 235 235 236 234 231 231 232 232 231 231 230
340 340 340 340 339 338 336 332 328 321 316 313 308 302 295 286 277 270 264 261 257 253 250 249 247 246 245 244 242 240 240 237 234 234 235 234 232 231 231 230 230 231 231
347 347 346 345 343 342 341 340 337 332 327 323 318 313 306 297 287 277 269 263 258 254 251 249 246 245 244 243 242 240 239 238 235 235 234 232 232 232 232 230 230 231 230
354 353 351 351 350 349 346 344 343 341 336 332 327 322 316 309 298 287 275 267 261 256 253 251 247 245 244 243 242 241 239 238 236 236 234 232 230 231 232 231 230 230 229
359 358 356 356 356 355 353 351 351 350 347 343 337 332 327 321 312 301 286 273 265 260 255 251 248 245 244 243 242 240 238 237 236 235 234 233 231 231 231 231 231 231 231
0 360 360 1 2 2 1 1 0 358 354 351 347 343 339 333 324 312 297 281 271 263 257 252 248 246 244 242 241 239 238 237 237 235 235 234 233 232 231 232 232 232 233
3 3 4 4 5 5 5 5 4 2 359 356 352 350 348 344 338 328 314 295 280 267 258 253 248 245 244 242 240 238 237 236 236 235 234 234 234 232 231 231 233 234 234
9 8 8 7 7 6 6 6 6 4 3 2 360 357 354 351 347 340 331 316 298 279 264 256 251 246 243 241 240 239 236 236 235 232 232 232 233 232 232 232 233 234 235
14 13 12 11 10 9 8 8 8 7 6 6 5 3 1 359 357 352 345 337 320 297 276 262 253 248 244 241 241 239 237 236 234 231 231 232 233 232 232 232 231 233 235
17 16 15 13 12 11 10 10 9 10 10 10 9 8 7 5 4 0 355 351 344 327 297 275 260 252 246 241 239 238 236 234 233 231 230 231 232 234 234 234 233 233 235
19 18 17 16 15 14 13 13 13 13 13 12 12 11 10 10 10 9 8 5 1 351 331 301 279 262 250 244 241 238 236 234 234 232 231 230 231 234 235 235 235 235 236
18 18 17 17 16 15 15 15 15 15 15 14 14 14 13 13 14 14 14 13 11 4 353 331 302 277 260 250 245 242 239 237 235 233 231 230 232 234 236 237 237 237 238
16 16 15 15 15 15 16 16 16 16 17 16 16 16 16 17 17 17 16 16 14 9 2 352 336 304 277 261 251 246 241 238 236 234 233 232 232 234 236 238 238 238 239
13 13 13 14 14 14 15 15 16 16 17 18 18 18 19 19 19 19 19 17 14 11 6 2 353 335 303 274 256 245 241 238 236 235 234 233 233 234 235 236 238 239 239
10 11 12 12 12 13 14 15 16 16 17 18 19 19 19 20 20 20 20 18 16 12 8 3 355 349 333 300 265 248 241 238 236 234 233 234 235 235 235 235 236 237 238
7 8 9 10 10 11 11 13 14 14 15 15 16 17 18 19 19 20 20 20 18 16 13 9 6 360 349 331 295 257 243 237 236 234 233 234 235 236 236 234 235 236 235
4 4 4 6 7 8 9 10 11 13 13 13 14 15 16 18 19 20 20 20 19 18 18 17 14 11 3 351 332 289 250 240 236 233 231 231 232 232 233 232 231 232 234
358 358 359 1 3 4 6 7 8 10 11 11 12 13 14 16 17 19 20 20 21 21 20 20 18 16 15 11 6 358 279 237 232 231 229 229 229 229 229 229 230 229 229
352 353 354 355 356 358 359 1 4 6 8 9 10 12 13 15 16 18 20 21 21 22 22 22 21 22 22 24 23 20 8 268 234 227 224 223 225 224 225 226 226 224 225
341 344 347 348 350 351 352 354 356 359 2 4 6 8 10 13 14 16 17 18 19 20 21 22 23 25 26 30 31 30 31 37 56 198 207 212 216 216 216 219 219 221 224
333 336 338 340 342 344 346 348 350 353 355 357 1 3 6 8 10 13 14 15 16 18 20 21 22 23 25 28 31 31 32 31 33 78 198 207 211 213 211 212 215 217 221
327 328 330 332 334 336 339 342 344 346 349 351 354 358 0 2 4 6 9 11 14 15 16 19 21 22 23 24 26 28 31 32 33 41 147 195 205 208 206 209 212 212 212
319 322 323 325 328 330 332 335 337 340 342 344 346 350 353 355 356 358 0 3 6 9 12 15 17 20 22 23 23 26 28 30 37 45 62 180 200 204 205 204 208 215 216
313 315 317 319 322 323 325 328 331 334 336 338 340 341 344 347 348 348 350 353 356 359 3 7 10 13 16 18 19 21 25 29 33 33 39 74 186 197 201 203 205 209 216
309 310 311 313 315 317 318 321 323 326 328 330 332 334 336 337 339 341 341 342 345 347 351 354 356 360 3 7 12 15 19 26 29 30 30 27 164 198 205 208 210 210 212
306 306 307 308 309 310 311 313 315 316 318 319 321 324 326 328 330 331 332 333 334 335 337 340 342 344 347 350 355 0 5 11 17 19 19 14 325 216 213 211 214 213 213
Height
5851 5847 5844 5840 5835 5831 5827 5823 5819 5816 5812 5809 5806 5804 5802 5800 5799 5799 5799 5800 5801 5803 5805 5807 5810 5813 5817 5821 5825 5828 5832 5835 5839 5842 5845 5848 5851 5854 5857 5860 5863 5866 5868
5849 5845 5841 5837 5833 5829 5824 5820 5815 5811 5808 5804 5801 5798 5796 5794 5792 5791 5791 5791 5792 5793 5795 5798 5801 5804 5807 5811 5815 5819 5823 5826 5831 5835 5838 5841 5845 5848 5851 5854 5857 5860 5863
5848 5844 5840 5836 5831 5826 5822 5817 5812 5808 5804 5801 5797 5794 5791 5788 5786 5784 5784 5784 5784 5785 5787 5789 5792 5795 5798 5802 5806 5810 5814 5818 5822 5827 5830 5834 5838 5841 5844 5847 5851 5854 5857
5847 5843 5839 5834 5830 5825 5820 5815 5810 5806 5802 5798 5794 5790 5787 5783 5780 5778 5777 5777 5777 5778 5779 5781 5783 5786 5789 5792 5796 5800 5805 5809 5814 5818 5822 5827 5830 5833 5837 5841 5844 5847 5851
5847 5842 5838 5833 5829 5824 5818 5813 5808 5804 5800 5795 5791 5787 5783 5779 5775 5773 5771 5770 5770 5771 5772 5773 5775 5778 5781 5784 5788 5791 5796 5800 5805 5809 5813 5818 5822 5826 5830 5834 5837 5841 5844
5846 5842 5838 5833 5828 5823 5818 5812 5808 5803 5798 5794 5789 5784 5780 5776 5772 5769 5766 5765 5764 5764 5765 5766 5768 5770 5773 5776 5779 5783 5787 5791 5796 5801 5805 5809 5814 5818 5823 5826 5830 5834 5837
5846 5842 5837 5833 5828 5823 5818 5812 5807 5803 5798 5792 5787 5783 5778 5773 5769 5765 5762 5760 5759 5759 5759 5760 5762 5764 5766 5768 5771 5774 5778 5783 5787 5792 5797 5801 5806 5810 5815 5819 5822 5826 5830
5846 5841 5837 5833 5828 5823 5818 5813 5808 5802 5797 5792 5786 5781 5776 5771 5767 5763 5759 5757 5755 5754 5755 5755 5756 5758 5759 5762 5764 5767 5770 5774 5778 5783 5788 5793 5797 5802 5807 5811 5815 5819 5823
5846 5842 5838 5833 5829 5824 5818 5813 5808 5802 5797 5791 5786 5780 5775 5770 5765 5761 5758 5755 5753 5751 5751 5751 5752 5753 5754 5756 5758 5760 5763 5767 5771 5775 5780 5785 5789 5794 5799 5803 5807 5812 5815
5846 5842 5838 5834 5829 5824 5819 5814 5808 5803 5797 5792 5786 5780 5775 5770 5765 5760 5756 5753 5751 5749 5748 5748 5748 5748 5749 5751 5753 5755 5757 5760 5764 5768 5773 5777 5782 5786 5791 5795 5799 5803 5808
5847 5843 5839 5835 5830 5825 5820 5814 5809 5803 5798 5792 5786 5781 5775 5770 5765 5761 5757 5753 5751 5749 5747 5746 5745 5745 5746 5747 5748 5750 5752 5755 5758 5761 5766 5770 5774 5779 5783 5787 5791 5795 5800
5848 5844 5840 5836 5831 5826 5821 5816 5810 5805 5799 5793 5787 5782 5776 5771 5766 5761 5757 5754 5751 5749 5746 5744 5743 5742 5742 5743 5744 5745 5747 5750 5752 5755 5759 5763 5767 5771 5775 5779 5783 5787 5791
5849 5845 5841 5837 5832 5827 5822 5817 5812 5806 5801 5795 5789 5783 5778 5772 5767 5763 5759 5756 5752 5749 5746 5744 5742 5740 5739 5739 5739 5740 5742 5744 5747 5750 5753 5756 5760 5764 5768 5771 5775 5778 5782
5849 5846 5842 5838 5833 5829 5824 5819 5813 5808 5802 5797 5791 5785 5780 5774 5769 5765 5761 5757 5753 5749 5746 5743 5741 5738 5737 5736 5736 5736 5738 5739 5741 5744 5747 5750 5753 5757 5761 5764 5768 5771 5775
5850 5846 5842 5839 5834 5830 5825 5820 5815 5810 5804 5799 5793 5787 5782 5777 5772 5767 5763 5758 5754 5750 5746 5743 5740 5737 5735 5734 5733 5733 5734 5735 5737 5739 5742 5745 5748 5751 5754 5758 5761 5764 5768
5850 5847 5843 5839 5835 5831 5826 5821 5816 5811 5806 5801 5795 5790 5784 5779 5774 5769 5764 5760 5756 5751 5747 5743 5740 5737 5734 5732 5731 5730 5731 5732 5733 5735 5737 5740 5743 5745 5748 5751 5754 5758 5761
5850 5847 5843 5839 5835 5831 5827 5822 5818 5813 5807 5802 5797 5792 5786 5781 5776 5771 5766 5762 5757 5753 5748 5744 5740 5737 5734 5732 5730 5729 5729 5729 5730 5732 5734 5736 5738 5741 5743 5746 5749 5752 5755
5849 5846 5843 5839 5835 5832 5827 5823 5819 5814 5809 5804 5799 5793 5788 5783 5778 5773 5769 5764 5759 5754 5750 5746 5742 5738 5734 5732 5730 5728 5728 5728 5728 5729 5730 5732 5734 5736 5739 5741 5744 5747 5750
5849 5845 5842 5839 5835 5831 5828 5824 5819 5815 5810 5805 5800 5795 5790 5785 5781 5776 5771 5766 5762 5757 5752 5748 5744 5740 5736 5733 5731 5729 5728 5727 5727 5727 5728 5729 5731 5733 5735 5738 5740 5742 5745
5847 5844 5841 5838 5834 5831 5827 5823 5819 5815 5811 5806 5801 5797 5792 5787 5783 5778 5774 5769 5764 5760 5755 5750 5746 5742 5738 5735 5733 5731 5729 5728 5727 5727 5727 5728 5729 5731 5732 5735 5737 5739 5742
5845 5843 5840 5836 5833 5830 5826 5823 5819 5815 5811 5807 5802 5798 5793 5789 5784 5780 5776 5771 5767 5762 5757 5753 5749 5745 5741 5738 5735 5733 5731 5729 5728 5728 5727 5728 5729 5730 5731 5733 5735 5737 5739
5843 5840 5837 5834 5831 5828 5825 5821 5818 5814 5810 5807 5802 5798 5794 5790 5786 5782 5778 5773 5769 5765 5760 5756 5752 5748 5745 5741 5738 5736 5733 5732 5730 5729 5729 5729 5729 5730 5730 5732 5733 5735 5737
5840 5837 5834 5831 5829 5826 5823 5819 5816 5813 5809 5806 5802 5798 5794 5790 5786 5783 5779 5775 5771 5767 5763 5759 5755 5751 5748 5744 5741 5738 5736 5734 5732 5731 5730 5729 5729 5729 5730 5731 5732 5733 5735
5835 5833 5830 5828 5825 5822 5820 5817 5814 5811 5807 5804 5801 5797 5793 5790 5786 5783 5779 5775 5772 5768 5764 5761 5757 5754 5750 5747 5744 5741 5738 5736 5734 5733 5731 5730 5730 5730 5730 5731 5732 5733 5734
5831 5828 5826 5823 5821 5818 5816 5813 5810 5808 5805 5801 5798 5795 5792 5788 5785 5782 5778 5775 5772 5768 5765 5762 5759 5755 5752 5749 5746 5743 5740 5738 5736 5734 5733 5732 5731 5730 5730 5731 5731 5732 5733
5825 5823 5820 5818 5816 5813 5811 5808 5806 5803 5801 5798 5795 5792 5789 5786 5783 5780 5777 5773 5770 5767 5764 5761 5758 5756 5753 5750 5747 5745 5742 5740 5738 5736 5734 5733 5732 5731 5731 5731 5731 5731 5732